Regional Weather Roundup
Issued by NWS Little Rock, AR

Home | Current Version | Previous Version | Text Only | Print | Product List | Glossary Off
Versions: 1 2 3 4 5 6 7 8 9 10 11 12 13 14 15 16 17 18 19 20 21 22 23 24 25 26 27

000
ASUS44 KLZK 221905
RWRLZK

WEATHER ROUNDUP FOR ARKANSAS
NATIONAL WEATHER SERVICE LITTLE ROCK AR
200 PM CDT TUE APR 22 2014

NOTE: "FAIR" INDICATES FEW OR NO CLOUDS BELOW 12,000 FEET WITH NO
SIGNIFICANT WEATHER AND/OR OBSTRUCTIONS TO VISIBILITY.

ARZ001-003-010-029-222000-
NORTHWEST ARKANSAS

CITY           SKY/WX    TMP DP  RH WIND       PRES   REMARKS
FAYETTEVILLE   SUNNY     71  40  32 NW12      30.05F
FORT SMITH     SUNNY     79  43  27 N9        30.01F
HARRISON       SUNNY     71  36  27 N8        30.04F
BENTONVILLE    SUNNY     70  36  28 N10       30.07F
ROGERS         SUNNY     68  35  29 NE10      30.07F
SILOAM SPGS    SUNNY     70  39  32 N8        30.07F
HIGHFILL       SUNNY     71  39  31 N8        30.06F
SPRINGDALE     SUNNY     70  34  26 N8G16     30.07F
$$

ARZ004-005-016-222000-
NORTH CENTRAL ARKANSAS

CITY           SKY/WX    TMP DP  RH WIND       PRES   REMARKS
BATESVILLE     SUNNY     75  41  29 N8        29.97S
FLIPPIN        SUNNY     72  37  28 N12       30.03S
MTN HOME       SUNNY     71  31  22 CALM      30.01F
$$

ARZ040-041-222000-
WEST CENTRAL ARKANSAS

CITY           SKY/WX    TMP DP  RH WIND       PRES   REMARKS
MENA           SUNNY     77  39  25 NE7       30.02F
MOUNT IDA      SUNNY     76  45  33 CALM      29.98F
$$

ARZ009-017-025-026-028-222000-
NORTHEAST ARKANSAS

CITY           SKY/WX    TMP DP  RH WIND       PRES   REMARKS
CORNING          N/A     73  39  29 NE12G18   29.97S
JONESBORO      SUNNY     73  45  36 NW8       29.96S
NEWPORT        SUNNY     73  45  36 NW10      29.98F
WALNUT RIDGE   SUNNY     73  46  38 N9        29.97F
BLYTHEVILLE    SUNNY     75  47  36 N16G25    29.95F
NW BLYTHEVILLE SUNNY     73  46  38 N10       29.95F
$$

ARZ022-023-033-042-044-222000-
CENTRAL ARKANSAS

CITY           SKY/WX    TMP DP  RH WIND       PRES   REMARKS
LITTLE ROCK    SUNNY     79  46  31 N8        29.97F
N LITTLE ROCK  SUNNY     76  49  38 N9        29.97F
JACKSONVILLE   SUNNY     77  44  30 N7        29.96F
SEARCY         SUNNY     76  41  28 NW10      29.97F
HOT SPRINGS    SUNNY     79  50  36 VRB6      29.99F
RUSSELLVILLE   SUNNY     79  43  27 W7        29.98F
CLINTON        FAIR      75  37  25 N5G17     29.99S
$$

ARZ036-222000-
EAST ARKANSAS

CITY           SKY/WX    TMP DP  RH WIND       PRES   REMARKS
WEST MEMPHIS   CLOUDY    72  59  63 N10       29.94F
$$

ARZ050-053-066-070-073-222000-
SOUTHWEST ARKANSAS

CITY           SKY/WX    TMP DP  RH WIND       PRES   REMARKS
ARKADELPHIA    FAIR      79  57  46 N3        29.98F
CAMDEN         MOSUNNY   77  59  53 MISG      29.97F
TEXARKANA      MOSUNNY   77  60  55 CALM      29.99F
EL DORADO      MOSUNNY   76  61  59 VRB6      29.98F
DE QUEEN       SUNNY     79  50  36 VRB5      29.98F
$$

ARZ056-057-069-222000-
SOUTHEAST ARKANSAS

CITY           SKY/WX    TMP DP  RH WIND       PRES   REMARKS
PINE BLUFF     SUNNY     75  49  39 N10G18    29.97F
STUTTGART      SUNNY     75  46  35 N14G21    29.97F
MONTICELLO     PTSUNNY   75  62  64 VRB6      29.96F

$$





USA.gov is the U.S. government's official web portal to all federal, state and local government web resources and services.